Showing default

LEMUR 2 DAISY-HARPER, 43889

Orbit data source: Space-Track

LEMUR 2 DAISY-HARPER, 43889 is a payload satellite owned by Spire/Lux (US) in SSO that was launched on Thu, 27 Dec 2018 UTC via a SOYUZ-2-1A launch vehicle from the Vostochny Cosmodrome (VOSTO). Payloads include a variety of satellites, spacecraft, and rockets equipped with specific instruments for various scientific and technological missions. These include communications satellites like Starlink; space stations such as the ISS; scientific satellites like the Hubble; Earth observation satellites from companies like Planet Labs, Umbra, and HawkEye 360; GPS; miniature CubeSats for education and research; and military/defense satellites.

Loading next visibility...
LEMUR 2 DAISY-HARPER details
Identifier
43889, 2018-111P
Orbit
SSO
Last TLE update9 hours ago
Origin
Flag of USSpire/Lux (US)
ManufacturerSpire/Glasgow
MissionOperational Commercial Com/MetRO
Bus & MotorCUBESAT 3U, Unknown motor
Mass4.6 kg wet, 4.6 kg dry
Launch date (UTC)
2018-12-27 (6 years ago)
Launch vehicle
SOYUZ-2-1A
Launch site
Vostochny Cosmodrome (VOSTO)
Object type
Payload
Rocket body
Debris
Shape & HBRBox + 2 Pan, 0.7 m
Radar Cross Section0.124 m², Small (<0.1 m²)

Expand to show TLE details & history

TLE from 9 hours ago
0 LEMUR 2 DAISY-HARPER
1 43889U 18111P   25013.75376348  .00212598  00000-0  23962-2 0  9999
2 43889  97.6355 304.6649 0009895  66.9217 293.3082 15.61780830332232
Epoch: 2025-01-13T18:05Z
Definitive object data (Epoch: 2025-01-13T18:05:25.164Z)
Latitude-0.00005°
Longitude-80.16022°
Altitude383.011 km
Speed7.682 km/s
True Right ascension20h 18m 39s
True Declination0° 00' 00"
Sunlit
Object was in daylight at TLE epoch
Visualization TLE readout
Latitude-75.90882°
Longitude68.15563°
Altitude416.049 km
Speed7.656 km/s
Apparent Right ascension14h 21m 05s
Apparent Declination-70° 18' 31"
Sunlit
Object is in daylight
Visualization observer readout
Local Sidereal Time03:27:37
Azimuth169.39° S
Elevation-58.404°
Doppler factor1
Orbital elements
Apogee altitude386.12 km
Perigee altitude372.747 km
Semi-major axis6,757.57 km
Eccentricity0.0009895
Inclination97.6355°
RAAN304.6649°
Arg. of periapsis66.9217°
True anomaly293.20401°
Mean anomaly293.3082°
Eccentric anomaly293.25611°
Mean motion3.90712 °/min
BSTAR0.0023962
Orbital period92.14 mins
Loading maneuver chart data...
Loading historical data...
Loading historical data...
Loading historical data...
Loading historical data...
Loading historical data...
Loading historical data...
Loading historical data...

LEMUR 2 DAISY-HARPER Visibility forecast

Observer location: undefined°, undefined

Span
Click to sort rows by Start time (UTC) header in descending order
Start Az.
Max El. time (UTC)
Max El. Az.
Max El.
End time (UTC)
End Az.
5 mins2025-01-14 08:28:46.660Z354.09° N2025-01-14 08:30:46.660Z308.818° NW31.081°2025-01-14 08:33:46.660Z216.232° SW
|